Other Public Products
Issued by NWS Grand Forks, ND

Home | Current Version | Previous Version | Text Only | Print | Product List | Glossary Off
Versions: 1 2 3 4 5 6 7 8 9 10 11 12 13 14 15 16 17 18 19 20 21 22 23 24 25 26 27 28 29 30 31 32 33 34 35 36 37 38 39 40 41 42 43 44 45 46 47 48 49 50

000
FPUS83 KFGF 262010
OPUFGF
PRAIRIE TO PINES WEATHER ROUNDUP
NATIONAL WEATHER SERVICE EASTERN NORTH DAKOTA/GRAND FORKS ND
200 PM CST SUN FEB 26 2017

 **SATELLITE DATA USED TO AUGMENT SKY COVER AT AUTOMATED STATIONS**
 *****  WEATHER ACROSS EASTERN NORTH DAKOTA  *****

CITY           SKY/WX    TMP DP  RH WIND       PRES   REMARKS
GRAND FORKS    FAIR      19   4  51 W9        29.86R WCI   8
GRAND FORKS AF FAIR      20   7  59 W8        29.85S WCI  10
GRAND CITY NWS NOT AVBL
BUXTON         NOT AVBL
DEVILS LAKE    FAIR      12   9  87 W7        29.82S WCI   1
FARGO          FAIR      20   8  60 CALM      29.88S
WAHPETON ARPT  FAIR      19  10  68 W5        29.88S WCI  13
$$

 *****  WEATHER ACROSS CENTRAL AND WESTERN NORTH DAKOTA  *****

CITY           SKY/WX    TMP DP  RH WIND       PRES   REMARKS
JAMESTOWN      CLOUDY    20  11  68 SW8       29.81S WCI  10
BISMARCK       CLOUDY    22  15  75 E5        29.79S WCI  16
MINOT          FAIR      21   8  57 W3        29.77S
MINOT AFB      FAIR      21   9  59 SW7       29.77S WCI  12
GARRISON         N/A     19  11  70 CALM      29.77S
WILLISTON      FAIR      22  14  71 NW6       29.77S WCI  14
DICKINSON      CLOUDY    29  22  75 NW17      29.67S WCI  17
HETTINGER      CLOUDY    33  22  63 W18       29.71S WCI  22
$$

 *****  OTHER OBSERVATIONS NORTHEAST NORTH DAKOTA  *****

CITY           SKY/WX    TMP DP  RH WIND       PRES   REMARKS
WALHALLA       NOT AVBL
LANGDON        NOT AVBL
CAVALIER         N/A     19   7  58 SW12      29.81F WCI   7
GRAFTON        FAIR      18   9  68 W9        29.86S WCI   6
CANDO          NOT AVBL
FORT TOTTEN      N/A     18   8  64 W7        29.95S WCI   9
ROLLA          FAIR      14   9  79 SW14      29.75R WCI  -1
RUGBY            N/A      9   7  92 SW5       29.80S WCI   0
 ***** THE ABOVE OBSERVATIONS ARE NON NWS ARE NOT QUALITY
        CONTROLLED AND MAY MIS-REPORT RAIN FOR SNOW...
$$

 *****  OTHER OBSERVATIONS SOUTHEAST NORTH DAKOTA *****

CITY           SKY/WX    TMP DP  RH WIND       PRES   REMARKS
COOPERSTOWN    FAIR      16   9  73 W7        29.83S WCI   6
VALLEY CITY    MOCLDY    21  12  68 W7        29.85R WCI  13
OAKES          NOT AVBL
GWINNER        CLOUDY    23  14  68 CALM      29.86S
BUFFALO        NOT AVBL
WYNDMERE       NOT AVBL
 ***** THE ABOVE OBSERVATIONS ARE NON NWS ARE NOT QUALITY
       CONTROLLED AND MAY MIS-REPORT RAIN FOR SNOW...
$$

  *****  WEATHER ACROSS NORTHERN MINNESOTA  *****

CITY           SKY/WX    TMP DP  RH WIND       PRES   REMARKS
FLAG ISLAND    FAIR      18   1  49 NW14      29.75F WCI   4
WARROAD        FAIR      16   7  67 W14       29.79S WCI   1
ROSEAU         FAIR      16   7  67 W8        29.80S WCI   5
HALLOCK        FAIR      16   7  67 SW6       29.83S WCI   7
THF RVR FALLS    N/A    N/A N/A N/A MISG        N/A
HALSTAD          N/A     17   7  64 W7          N/A  WCI   7
FOSSTON        FAIR      21   7  53 W7        29.82S WCI  13
BAUDETTE       FAIR      18   2  49 NW10      29.76F WCI   6
WASKISH        FAIR      18   5  57 SW9       29.79F WCI   6
CROOKSTON      FAIR      16   7  67 W7        29.87S WCI   6
$$
  *****  WEATHER ACROSS CENTRAL AND WEST MINNESOTA  *****

CITY           SKY/WX    TMP DP  RH WIND       PRES   REMARKS
BEMIDJI        FAIR      20   4  50 NW8       29.79S WCI  10
PARK RAPIDS    FAIR      21   5  50 W10       29.79R WCI  10
WADENA         FAIR      19   9  63 W8        29.81S WCI   9
DETROIT LAKES  FAIR      19  10  68 NW8       29.83S WCI   9
MOORHEAD       FAIR      18   9  68 SW3       29.89R
FERGUS FALLS   FAIR      16  10  79 NW8       29.90S WCI   5
ELBOW LAKE     FAIR      16   9  72 NW9       29.86S WCI   5
MORRIS MN      FAIR      25  12  58 N8        29.85S WCI  16
STAPLES        FAIR      21   9  58 W7        29.81S WCI  13
WHEATON        FAIR      19  12  73 NW6       29.90R WCI  11
$$
  *****  WEATHER ELSEWHERE ACROSS MINNESOTA  *****

CITY           SKY/WX    TMP DP  RH WIND       PRES   REMARKS
DULUTH         FAIR      21   3  45 NW16G23   29.73R WCI   7
INTRNTL FALLS  FAIR      17   0  47 W12       29.77R WCI   4
ELY            FAIR      19   0  42 NW10G17   29.71R WCI   8
CLOQUET        LGT SNOW  21   0  39 NW17G25   29.76R WCI   7
BRAINERD       FAIR      23   4  44 N9        29.81R WCI  13
HIBBING        FAIR      18   1  47 NW21      29.75R WCI   1
ALEXANDRIA     FAIR      23  11  60 N7        29.82S WCI  15
SAINT CLOUD    FAIR      31  13  47 NW14      29.81R WCI  21
MINNEAPOLIS    PTSUNNY   38  16  40 W22G31    29.79S
$$

  *****  WEATHER ACROSS SOUTH DAKOTA  *****

CITY           SKY/WX    TMP DP  RH WIND       PRES   REMARKS
SIOUX FALLS    FAIR      33  26  75 SW9       29.87S
BROOKINGS      FAIR      37  21  52 W14       29.81F
WATERTOWN      PTSUNNY   32  18  56 S6        29.81S
HURON          FAIR      38  22  52 SW9       29.83F
SISSETON         N/A     24  16  71 VRB6      29.86R WCI  17
ABERDEEN       CLOUDY    28  17  63 VRB5      29.84S WCI  23
MITCHELL       FAIR      39  26  59 S14       29.86S
PIERRE         FAIR      43  13  29 W12       29.77F
MOBRIDGE       FAIR      38  21  50 NW8       29.73F
RAPID CITY     CLOUDY    39  15  37 N9        29.75F
$$

  *****  SOME WEATHER IN NEARBY STATES *****

CITY           SKY/WX    TMP DP  RH WIND       PRES   REMARKS
GLASGOW MT     LGT SNOW  24  18  77 NW12      29.78R WCI  13
GREAT FALLS MT LGT SNOW  22  15  75 N15       29.74F WCI   9
CHEYENNE WY    FAIR      24  11  57 S13       29.76F WCI  12
SCOTTSBLUFF NE FAIR      32  11  41 W10       29.83F WCI  24
OMAHA NE       FAIR      43  22  43 NW7       29.94F
DES MOINES IA  FAIR      48  25  40 W17G28    29.92R
DAVENPORT IA   FAIR      49  26  41 W23G30    29.92F
CHICAGO IL     FAIR      47  20  34 SW24G35   29.92F
EAU CLAIRE WI  FAIR      33  22  63 W14       29.78S WCI  23
LA CROSSE WI   PTSUNNY   40  25  55 SW14      29.83S
$$

  *****  SOME NATIONAL WEATHER *****

CITY           SKY/WX    TMP DP  RH WIND       PRES   REMARKS
LA GUARDIA NY  FAIR      44  13  28 W15G25    30.04R
RALEIGH NC     FAIR      54  15  21 W8        30.17S
ATLANTA GA     FAIR      60  15  17 N7        30.18F
NEW ORLEANS LA FAIR      68  50  52 SE15      30.13F
OKLAHOMA CITY  CLOUDY    57  32  38 SW8       29.87F
ALBUQUERQUE NM PTSUNNY   43  19  38 N8        29.92F
SALT LAKE CITY FAIR      36  14  40 S20G26    29.87F
LOS ANGELES CA PTSUNNY   53  48  83 E7        30.00F
BOISE ID       PTSUNNY   36  18  48 SE16      29.77F
SEATTLE WA     LGT RAIN  38  36  92 E10       29.69S
$$

*** WEATHER ACROSS MANITOBA...SASKATCHEWAN AND ONTARIO ***
                ***ONTARIO***

CITY           SKY/WX    TMP DP  RH WIND       PRES   REMARKS
GERALDTON      SNOWSHWR  18  12  79 NW6       29.55R VSB 3/4 WCI   9
THUNDER BAY    PTSUNNY   23   7  50 NW16G24   29.66R WCI  10
SIOUX LOOKOUT  FLURRIES   9  -4  56 NW13      29.69S WCI  -7
TORONTO        PTSUNNY   36  16  44 SW16G22   30.01F
BIG TROUT LK   PTSUNNY    7  -4  61 W15       29.60R WCI -11
PICKLE LAKE    LGT SNOW   9   0  66 W10       29.60R WCI  -6
DRYDEN         CLOUDY    10   1  67 W16       29.70R WCI  -7
KENORA         FLURRIES  14   3  62 W12G17    29.72F WCI   0
$$
                *** MANITOBA***

CITY           SKY/WX    TMP DP  RH WIND       PRES   REMARKS
BRANDON        PTSUNNY   14   7  73 SW12      29.73F WCI   0
DAUPHIN        PTSUNNY   21  12  68 W16       29.70S WCI   7
ISLAND LAKE    PTSUNNY    3  -6  66 W9        29.68S WCI -11
PILOT MOUND      N/A     18   7  62 W9          N/A  WCI   6
THE PAS        LGT SNOW   9   1  72 N9        29.69R WCI  -5
THOMPSON       MOSUNNY   -2 -13  60 NW9       29.72R WCI -18
WINNIPEG       MOSUNNY   16   7  67 SW9       29.79S WCI   4
LYNN LAKE      MOSUNNY   -6 -15  65 W13G18    29.73S WCI -25
CHURCHILL      CRYSTALS -17 -22  76 NW16      29.72S DRFTSNOWWCI -41
GILLAM         MOSUNNY   -8 -17  65 W12       29.69S WCI -27
$$
                ***SASKATCHEWAN***

CITY           SKY/WX    TMP DP  RH WIND       PRES   REMARKS
ESTEVAN        PTSUNNY   21  14  73 SW13      29.74S WCI   9
KINDERSLEY     MOSUNNY   14   3  62 N21G28    29.79R WCI  -4
LLOYDMINSTER   MOSUNNY    3  -8  60 NW17      29.85R WCI -17
PRINCE ALBERT  CLOUDY    12  -2  52 NW15G21   29.76S WCI  -4
REGINA         PTSUNNY   23   9  54 NW16      29.73S WCI  10
YORKTON        PTSUNNY   18   7  62 NW16      29.69S WCI   3
N. BATTLEFORD  SUNNY      7  -6  56 NW22G28   29.85R WC



USA.gov is the U.S. government's official web portal to all federal, state and local government web resources and services.